Time,TemperatureF,DewpointF,PressureIn,WindDirection,WindDirectionDegrees,WindSpeedMPH,WindSpeedGustMPH,Humidity,HourlyPrecipIn,Conditions,Clouds,dailyrainin,SoftwareType,DateUTC
2013-04-15 00:03:00,46.4,29.7,29.68,SW,227,5.0,5.0,52,0.00,CLR,CLR,0.00,WeatherDisplay:10.37,2013-04-15 05:03:00,
2013-04-15 00:08:00,46.1,29.9,29.68,WSW,239,4.0,4.0,53,0.00,CLR,CLR,0.00,WeatherDisplay:10.37,2013-04-15 05:08:00,
2013-04-15 00:13:00,45.8,30.1,29.68,WSW,250,3.0,3.0,54,0.00,CLR,CLR,0.00,WeatherDisplay:10.37,2013-04-15 05:13:00,
2013-04-15 00:18:00,45.6,29.9,29.68,West,266,2.3,2.3,54,0.00,CLR,CLR,0.00,WeatherDisplay:10.37,2013-04-15 05:18:00,
2013-04-15 00:23:00,45.4,29.7,29.67,WSW,244,4.0,4.0,54,0.00,CLR,CLR,0.00,WeatherDisplay:10.37,2013-04-15 05:23:00,
2013-04-15 00:28:00,45.4,29.7,29.67,WSW,241,5.0,5.0,54,0.00,CLR,CLR,0.00,WeatherDisplay:10.37,2013-04-15 05:28:00,
2013-04-15 00:33:00,45.3,29.2,29.67,WSW,238,4.0,4.0,53,0.00,CLR,CLR,0.00,WeatherDisplay:10.37,2013-04-15 05:33:00,
2013-04-15 00:38:00,45.0,29.3,29.67,WSW,245,3.5,3.5,54,0.00,CLR,CLR,0.00,WeatherDisplay:10.37,2013-04-15 05:38:00,
2013-04-15 00:43:00,44.8,29.2,29.68,WSW,250,3.5,3.5,54,0.00,CLR,CLR,0.00,WeatherDisplay:10.37,2013-04-15 05:43:00,
2013-04-15 00:48:00,44.6,29.0,29.68,WSW,244,3.5,3.5,54,0.00,CLR,CLR,0.00,WeatherDisplay:10.37,2013-04-15 05:48:00,
2013-04-15 00:53:00,44.3,29.1,29.68,WSW,237,1.2,1.2,55,0.00,CLR,CLR,0.00,WeatherDisplay:10.37,2013-04-15 05:53:00,
2013-04-15 00:58:00,44.1,28.9,29.68,WNW,292,3.5,3.5,55,0.00,CLR,CLR,0.00,WeatherDisplay:10.37,2013-04-15 05:58:00,
2013-04-15 01:03:00,43.9,28.8,29.67,WSW,240,4.0,4.0,55,0.00,CLR,CLR,0.00,WeatherDisplay:10.37,2013-04-15 06:03:00,
2013-04-15 01:08:00,44.0,28.4,29.68,WSW,251,4.6,4.6,54,0.00,CLR,CLR,0.00,WeatherDisplay:10.37,2013-04-15 06:08:00,
2013-04-15 01:14:00,44.1,28.5,29.68,WSW,244,3.5,3.5,54,0.00,CLR,CLR,0.00,WeatherDisplay:10.37,2013-04-15 06:14:00,
2013-04-15 01:19:00,44.0,28.4,29.68,WSW,245,3.5,3.5,54,0.00,CLR,CLR,0.00,WeatherDisplay:10.37,2013-04-15 06:19:00,
2013-04-15 01:24:00,43.8,28.2,29.68,WSW,258,2.3,2.3,54,0.00,CLR,CLR,0.00,WeatherDisplay:10.37,2013-04-15 06:24:00,
2013-04-15 01:29:00,43.6,28.0,29.68,West,271,2.3,2.3,54,0.00,CLR,CLR,0.00,WeatherDisplay:10.37,2013-04-15 06:29:00,
2013-04-15 01:34:00,43.4,27.8,29.67,WSW,255,4.0,4.0,54,0.00,CLR,CLR,0.00,WeatherDisplay:10.37,2013-04-15 06:34:00,
2013-04-15 01:39:00,43.3,27.8,29.67,West,275,2.3,2.3,54,0.00,CLR,CLR,0.00,WeatherDisplay:10.37,2013-04-15 06:39:00,
2013-04-15 01:44:00,43.2,27.7,29.68,SW,232,4.0,4.0,54,0.00,CLR,CLR,0.00,WeatherDisplay:10.37,2013-04-15 06:44:00,
2013-04-15 01:50:00,43.2,27.7,29.68,WSW,238,3.5,3.5,54,0.00,CLR,CLR,0.00,WeatherDisplay:10.37,2013-04-15 06:50:00,
2013-04-15 01:55:00,43.1,27.6,29.68,WSW,243,3.5,3.5,54,0.00,CLR,CLR,0.00,WeatherDisplay:10.37,2013-04-15 06:55:00,
2013-04-15 02:00:00,42.9,27.8,29.69,West,261,3.5,3.5,55,0.00,CLR,CLR,0.00,WeatherDisplay:10.37,2013-04-15 07:00:00,
2013-04-15 02:06:00,43.4,27.4,29.69,SW,236,4.0,4.0,53,0.00,CLR,CLR,0.00,WeatherDisplay:10.37,2013-04-15 07:06:00,
2013-04-15 02:41:00,42.0,27.9,29.70,SW,227,1.2,1.2,57,0.00,CLR,CLR,0.00,WeatherDisplay:10.37,2013-04-15 07:41:00,
2013-04-15 02:44:00,41.7,27.6,29.70,SW,227,1.0,1.0,57,0.00,CLR,CLR,0.00,WeatherDisplay:10.37,2013-04-15 07:44:00,
2013-04-15 02:48:00,41.3,27.6,29.70,SW,227,1.2,1.2,58,0.00,CLR,CLR,0.00,WeatherDisplay:10.37,2013-04-15 07:48:00,
2013-04-15 02:49:00,41.3,27.6,29.70,SW,227,1.2,1.2,58,0.00,CLR,CLR,0.00,WeatherDisplay:10.37,2013-04-15 07:49:00,
2013-04-15 02:50:00,41.2,27.5,29.70,SW,227,2.3,2.3,58,0.00,CLR,CLR,0.00,WeatherDisplay:10.37,2013-04-15 07:50:00,
2013-04-15 02:54:00,41.1,27.9,29.69,SW,229,3.0,3.0,59,0.00,CLR,CLR,0.00,WeatherDisplay:10.37,2013-04-15 07:54:00,
2013-04-15 02:59:00,41.2,27.9,29.70,SW,236,2.3,2.3,59,0.00,CLR,CLR,0.00,WeatherDisplay:10.37,2013-04-15 07:59:00,
2013-04-15 03:04:00,41.2,27.5,29.71,SW,232,3.0,3.0,58,0.00,CLR,CLR,0.00,WeatherDisplay:10.37,2013-04-15 08:04:00,
2013-04-15 03:09:00,41.4,27.7,29.70,WSW,251,2.3,2.3,58,0.00,CLR,CLR,0.00,WeatherDisplay:10.37,2013-04-15 08:09:00,
2013-04-15 03:14:00,41.3,27.6,29.70,WSW,251,1.2,0.0,58,0.00,CLR,CLR,0.00,WeatherDisplay:10.37,2013-04-15 08:14:00,
2013-04-15 03:20:00,41.2,27.9,29.71,WSW,253,4.0,4.0,59,0.00,CLR,CLR,0.00,WeatherDisplay:10.37,2013-04-15 08:20:00,
2013-04-15 03:25:00,41.3,27.6,29.71,SW,221,3.5,3.5,58,0.00,CLR,CLR,0.00,WeatherDisplay:10.37,2013-04-15 08:25:00,
2013-04-15 03:30:00,41.3,27.6,29.71,WSW,252,2.3,2.3,58,0.00,CLR,CLR,0.00,WeatherDisplay:10.37,2013-04-15 08:30:00,
2013-04-15 03:35:00,41.1,27.9,29.71,WSW,251,1.2,1.2,59,0.00,CLR,CLR,0.00,WeatherDisplay:10.37,2013-04-15 08:35:00,
2013-04-15 03:37:00,41.0,27.8,29.71,WSW,251,2.3,2.3,59,0.00,CLR,CLR,0.00,WeatherDisplay:10.37,2013-04-15 08:37:00,
2013-04-15 03:40:00,40.8,28.0,29.71,SW,229,4.0,4.0,60,0.00,CLR,CLR,0.00,WeatherDisplay:10.37,2013-04-15 08:40:00,
2013-04-15 03:41:00,40.8,27.6,29.71,WSW,242,3.5,3.5,59,0.00,CLR,CLR,0.00,WeatherDisplay:10.37,2013-04-15 08:41:00,
2013-04-15 03:43:00,40.9,28.1,29.71,WSW,248,3.0,3.0,60,0.00,CLR,CLR,0.00,WeatherDisplay:10.37,2013-04-15 08:43:00,
2013-04-15 03:48:00,41.0,28.2,29.71,NW,306,5.0,5.0,60,0.00,CLR,CLR,0.00,WeatherDisplay:10.37,2013-04-15 08:48:00,
2013-04-15 03:52:00,41.2,28.4,29.72,NW,305,3.5,3.5,60,0.00,CLR,CLR,0.00,WeatherDisplay:10.37,2013-04-15 08:52:00,
2013-04-15 03:58:00,41.4,28.9,29.72,WNW,282,2.3,2.3,61,0.00,CLR,CLR,0.00,WeatherDisplay:10.37,2013-04-15 08:58:00,
2013-04-15 04:03:00,41.3,28.9,29.72,West,276,4.0,4.0,61,0.00,CLR,CLR,0.00,WeatherDisplay:10.37,2013-04-15 09:03:00,
2013-04-15 04:08:00,41.3,29.3,29.72,WSW,254,5.8,5.8,62,0.00,CLR,CLR,0.00,WeatherDisplay:10.37,2013-04-15 09:08:00,
2013-04-15 04:13:00,41.2,29.2,29.72,WNW,301,6.0,6.0,62,0.00,CLR,CLR,0.00,WeatherDisplay:10.37,2013-04-15 09:13:00,
2013-04-15 04:18:00,41.1,29.5,29.71,WNW,301,6.0,6.0,63,0.00,CLR,CLR,0.00,WeatherDisplay:10.37,2013-04-15 09:18:00,
2013-04-15 04:24:00,40.9,29.7,29.72,NW,311,5.0,5.0,64,0.00,CLR,CLR,0.00,WeatherDisplay:10.37,2013-04-15 09:24:00,
2013-04-15 04:29:00,40.6,29.7,29.72,NW,324,4.0,4.0,65,0.00,CLR,CLR,0.00,WeatherDisplay:10.37,2013-04-15 09:29:00,
2013-04-15 04:34:00,40.2,29.4,29.72,NW,326,4.0,4.0,65,0.00,CLR,CLR,0.00,WeatherDisplay:10.37,2013-04-15 09:34:00,
2013-04-15 04:39:00,39.9,29.5,29.73,North,5,6.0,6.0,66,0.00,CLR,CLR,0.00,WeatherDisplay:10.37,2013-04-15 09:39:00,
2013-04-15 04:44:00,39.6,28.8,29.72,WNW,294,3.5,3.5,65,0.00,CLR,CLR,0.00,WeatherDisplay:10.37,2013-04-15 09:44:00,
2013-04-15 04:49:00,39.4,28.6,29.73,West,262,8.0,8.0,65,0.00,CLR,CLR,0.00,WeatherDisplay:10.37,2013-04-15 09:49:00,
2013-04-15 04:54:00,39.2,28.0,29.74,NNW,348,6.0,6.0,64,0.00,CLR,CLR,0.00,WeatherDisplay:10.37,2013-04-15 09:54:00,
2013-04-15 04:59:00,39.0,27.8,29.74,NE,34,4.0,4.0,64,0.00,CLR,CLR,0.00,WeatherDisplay:10.37,2013-04-15 09:59:00,
2013-04-15 05:04:00,38.8,27.3,29.74,NW,325,3.5,3.5,63,0.00,CLR,CLR,0.00,WeatherDisplay:10.37,2013-04-15 10:04:00,
2013-04-15 05:09:00,38.6,27.1,29.74,North,355,4.0,4.0,63,0.00,CLR,CLR,0.00,WeatherDisplay:10.37,2013-04-15 10:09:00,
2013-04-15 05:14:00,38.4,26.1,29.75,West,269,3.5,3.5,61,0.00,CLR,CLR,0.00,WeatherDisplay:10.37,2013-04-15 10:14:00,
2013-04-15 05:19:00,38.2,26.3,29.76,NNW,327,3.5,3.5,62,0.00,CLR,CLR,0.00,WeatherDisplay:10.37,2013-04-15 10:19:00,
2013-04-15 05:24:00,38.0,26.1,29.76,WSW,247,4.0,4.0,62,0.00,CLR,CLR,0.00,WeatherDisplay:10.37,2013-04-15 10:24:00,
2013-04-15 05:29:00,37.9,26.0,29.76,WNW,302,2.3,2.3,62,0.00,CLR,CLR,0.00,WeatherDisplay:10.37,2013-04-15 10:29:00,
2013-04-15 05:34:00,37.7,25.5,29.77,West,278,3.5,3.5,61,0.00,CLR,CLR,0.00,WeatherDisplay:10.37,2013-04-15 10:34:00,
2013-04-15 05:39:00,37.5,24.9,29.77,WNW,292,6.0,6.0,60,0.00,CLR,CLR,0.00,WeatherDisplay:10.37,2013-04-15 10:39:00,
2013-04-15 05:44:00,37.4,24.8,29.77,West,274,3.5,3.5,60,0.00,CLR,CLR,0.00,WeatherDisplay:10.37,2013-04-15 10:44:00,
2013-04-15 05:49:00,37.3,24.7,29.78,West,279,0.0,0.0,60,0.00,CLR,CLR,0.00,WeatherDisplay:10.37,2013-04-15 10:49:00,
2013-04-15 05:54:00,37.1,24.9,29.78,West,260,1.2,1.2,61,0.00,CLR,CLR,0.00,WeatherDisplay:10.37,2013-04-15 10:54:00,
2013-04-15 05:59:00,37.0,24.0,29.79,West,262,2.3,0.0,59,0.00,CLR,CLR,0.00,WeatherDisplay:10.37,2013-04-15 10:59:00,
2013-04-15 06:04:00,36.8,23.8,29.80,SW,230,4.0,4.0,59,0.00,CLR,CLR,0.00,WeatherDisplay:10.37,2013-04-15 11:04:00,
2013-04-15 06:09:00,36.7,23.3,29.81,WSW,238,3.5,3.5,58,0.00,CLR,CLR,0.00,WeatherDisplay:10.37,2013-04-15 11:09:00,
2013-04-15 06:14:00,36.6,23.6,29.82,WSW,243,3.5,3.5,59,0.00,CLR,CLR,0.00,WeatherDisplay:10.37,2013-04-15 11:14:00,
2013-04-15 06:19:00,36.4,23.4,29.82,WSW,257,2.3,2.3,59,0.00,CLR,CLR,0.00,WeatherDisplay:10.37,2013-04-15 11:19:00,
2013-04-15 06:24:00,36.2,23.6,29.82,WNW,291,2.3,2.3,60,0.00,CLR,CLR,0.00,WeatherDisplay:10.37,2013-04-15 11:24:00,
2013-04-15 06:29:00,36.1,23.5,29.82,WNW,290,2.3,2.3,60,0.00,CLR,CLR,0.00,WeatherDisplay:10.37,2013-04-15 11:29:00,
2013-04-15 06:34:00,35.9,23.7,29.82,West,260,2.3,2.3,61,0.00,CLR,CLR,0.00,WeatherDisplay:10.37,2013-04-15 11:34:00,
2013-04-15 06:39:00,35.7,23.6,29.83,SW,221,4.0,4.0,61,0.00,CLR,CLR,0.00,WeatherDisplay:10.37,2013-04-15 11:39:00,
2013-04-15 06:44:00,35.5,22.6,29.83,WNW,297,5.8,5.8,59,0.00,CLR,CLR,0.00,WeatherDisplay:10.37,2013-04-15 11:44:00,
2013-04-15 06:49:00,35.7,22.4,29.84,North,355,4.6,4.6,58,0.00,CLR,CLR,0.00,WeatherDisplay:10.37,2013-04-15 11:49:00,
2013-04-15 06:54:00,35.9,22.1,29.85,NW,314,5.0,5.0,57,0.00,CLR,CLR,0.00,WeatherDisplay:10.37,2013-04-15 11:54:00,
2013-04-15 07:00:00,35.9,22.5,29.84,WNW,288,2.3,2.3,58,0.00,CLR,CLR,0.00,WeatherDisplay:10.37,2013-04-15 12:00:00,
2013-04-15 07:05:00,36.0,22.6,29.84,West,276,2.3,2.3,58,0.00,CLR,CLR,0.00,WeatherDisplay:10.37,2013-04-15 12:05:00,
2013-04-15 07:10:00,36.1,23.5,29.85,SW,227,2.3,2.3,60,0.00,CLR,CLR,0.00,WeatherDisplay:10.37,2013-04-15 12:10:00,
2013-04-15 07:15:00,36.1,23.5,29.85,WNW,288,3.0,3.0,60,0.00,CLR,CLR,0.00,WeatherDisplay:10.37,2013-04-15 12:15:00,
2013-04-15 07:20:00,36.1,23.5,29.85,WSW,250,3.5,3.5,60,0.00,CLR,CLR,0.00,WeatherDisplay:10.37,2013-04-15 12:20:00,
2013-04-15 07:25:00,36.1,23.5,29.85,WSW,257,6.9,6.9,60,0.00,CLR,CLR,0.00,WeatherDisplay:10.37,2013-04-15 12:25:00,
2013-04-15 07:30:00,36.1,23.1,29.85,West,281,6.0,6.0,59,0.00,CLR,CLR,0.00,WeatherDisplay:10.37,2013-04-15 12:30:00,
2013-04-15 07:35:00,36.1,22.7,29.85,West,274,4.0,4.0,58,0.00,CLR,CLR,0.00,WeatherDisplay:10.37,2013-04-15 12:35:00,
2013-04-15 07:40:00,36.2,23.6,29.86,West,278,2.3,2.3,60,0.00,CLR,CLR,0.00,WeatherDisplay:10.37,2013-04-15 12:40:00,
2013-04-15 07:45:00,36.2,22.8,29.87,NW,307,3.5,3.5,58,0.00,CLR,CLR,0.00,WeatherDisplay:10.37,2013-04-15 12:45:00,
2013-04-15 07:50:00,36.2,22.8,29.86,West,281,4.0,4.0,58,0.00,CLR,CLR,0.00,WeatherDisplay:10.37,2013-04-15 12:50:00,
2013-04-15 07:55:00,36.3,22.9,29.87,West,281,4.0,4.0,58,0.00,CLR,CLR,0.00,WeatherDisplay:10.37,2013-04-15 12:55:00,
2013-04-15 08:00:00,36.5,23.1,29.88,West,271,5.0,5.0,58,0.00,CLR,CLR,0.00,WeatherDisplay:10.37,2013-04-15 13:00:00,
2013-04-15 08:05:00,36.6,22.4,29.88,West,275,4.0,4.0,56,0.00,CLR,CLR,0.00,WeatherDisplay:10.37,2013-04-15 13:05:00,
2013-04-15 08:12:00,36.6,22.4,29.88,WNW,285,3.5,3.5,56,0.00,CLR,CLR,0.00,WeatherDisplay:10.37,2013-04-15 13:12:00,
2013-04-15 08:18:00,36.6,21.9,29.89,West,275,5.0,5.0,55,0.00,CLR,CLR,0.00,WeatherDisplay:10.37,2013-04-15 13:18:00,
2013-04-15 08:23:00,36.6,21.9,29.88,West,267,2.3,2.3,55,0.00,CLR,CLR,0.00,WeatherDisplay:10.37,2013-04-15 13:23:00,
2013-04-15 08:29:00,36.7,22.5,29.88,West,277,4.0,4.0,56,0.00,CLR,CLR,0.00,WeatherDisplay:10.37,2013-04-15 13:29:00,
2013-04-15 08:34:00,36.9,23.1,29.90,West,277,3.5,3.5,57,0.00,CLR,CLR,0.00,WeatherDisplay:10.37,2013-04-15 13:34:00,
2013-04-15 08:39:00,36.9,23.5,29.90,SW,225,8.0,8.0,58,0.00,CLR,CLR,0.00,WeatherDisplay:10.37,2013-04-15 13:39:00,
2013-04-15 08:44:00,36.9,23.1,29.89,West,269,5.8,5.8,57,0.00,CLR,CLR,0.00,WeatherDisplay:10.37,2013-04-15 13:44:00,
2013-04-15 08:49:00,36.9,23.5,29.89,West,271,2.3,2.3,58,0.00,CLR,CLR,0.00,WeatherDisplay:10.37,2013-04-15 13:49:00,
2013-04-15 08:54:00,36.9,22.7,29.90,WSW,253,5.0,5.0,56,0.00,CLR,CLR,0.00,WeatherDisplay:10.37,2013-04-15 13:54:00,
2013-04-15 08:59:00,36.7,22.9,29.90,WSW,248,3.5,3.5,57,0.00,CLR,CLR,0.00,WeatherDisplay:10.37,2013-04-15 13:59:00,
2013-04-15 09:04:00,36.6,22.8,29.91,NNW,332,4.6,4.6,57,0.00,CLR,CLR,0.00,WeatherDisplay:10.37,2013-04-15 14:04:00,
2013-04-15 09:09:00,36.4,22.2,29.90,WSW,251,7.0,7.0,56,0.00,CLR,CLR,0.00,WeatherDisplay:10.37,2013-04-15 14:09:00,
2013-04-15 09:16:00,36.3,22.9,29.90,NNE,21,4.6,4.6,58,0.00,CLR,CLR,0.00,WeatherDisplay:10.37,2013-04-15 14:16:00,
2013-04-15 09:21:00,36.4,23.0,29.89,WNW,290,4.0,4.0,58,0.00,CLR,CLR,0.00,WeatherDisplay:10.37,2013-04-15 14:21:00,
2013-04-15 09:27:00,36.4,23.0,29.90,WNW,296,5.0,5.0,58,0.00,CLR,CLR,0.00,WeatherDisplay:10.37,2013-04-15 14:27:00,
2013-04-15 09:32:00,36.5,23.5,29.90,NW,317,5.0,5.0,59,0.00,CLR,CLR,0.00,WeatherDisplay:10.37,2013-04-15 14:32:00,
2013-04-15 09:37:00,36.8,23.8,29.90,WSW,254,4.6,4.6,59,0.00,CLR,CLR,0.00,WeatherDisplay:10.37,2013-04-15 14:37:00,
2013-04-15 09:42:00,37.2,24.2,29.90,NNW,339,2.3,2.3,59,0.00,CLR,CLR,0.00,WeatherDisplay:10.37,2013-04-15 14:42:00,
2013-04-15 09:47:00,37.3,23.4,29.90,NW,308,4.6,4.6,57,0.00,CLR,CLR,0.00,WeatherDisplay:10.37,2013-04-15 14:47:00,
2013-04-15 09:52:00,37.3,23.4,29.90,NW,309,4.0,4.0,57,0.00,CLR,CLR,0.00,WeatherDisplay:10.37,2013-04-15 14:52:00,
2013-04-15 09:58:00,37.3,23.4,29.90,West,277,3.5,3.5,57,0.00,CLR,CLR,0.00,WeatherDisplay:10.37,2013-04-15 14:58:00,
2013-04-15 10:04:00,37.3,23.4,29.91,WNW,292,2.3,2.3,57,0.00,CLR,CLR,0.00,WeatherDisplay:10.37,2013-04-15 15:04:00,
2013-04-15 10:10:00,37.4,23.5,29.91,NW,316,3.5,3.5,57,0.00,CLR,CLR,0.00,WeatherDisplay:10.37,2013-04-15 15:10:00,
2013-04-15 10:15:00,37.6,24.1,29.91,NW,325,3.5,3.5,58,0.00,CLR,CLR,0.00,WeatherDisplay:10.37,2013-04-15 15:15:00,
2013-04-15 10:20:00,37.8,23.9,29.91,West,279,4.0,4.0,57,0.00,CLR,CLR,0.00,WeatherDisplay:10.37,2013-04-15 15:20:00,
2013-04-15 10:27:00,37.7,24.2,29.92,NW,312,4.0,4.0,58,0.00,CLR,CLR,0.00,WeatherDisplay:10.37,2013-04-15 15:27:00,
2013-04-15 10:33:00,37.6,24.1,29.92,WNW,302,3.5,3.5,58,0.00,CLR,CLR,0.00,WeatherDisplay:10.37,2013-04-15 15:33:00,
2013-04-15 10:38:00,37.6,24.1,29.93,NW,304,5.0,5.0,58,0.00,CLR,CLR,0.00,WeatherDisplay:10.37,2013-04-15 15:38:00,
2013-04-15 10:43:00,37.5,24.1,29.93,WSW,244,2.3,2.3,58,0.00,CLR,CLR,0.00,WeatherDisplay:10.37,2013-04-15 15:43:00,
2013-04-15 10:49:00,37.3,24.3,29.93,West,263,3.5,3.5,59,0.00,CLR,CLR,0.00,WeatherDisplay:10.37,2013-04-15 15:49:00,
2013-04-15 10:55:00,37.3,24.7,29.93,WNW,284,2.3,2.3,60,0.00,CLR,CLR,0.00,WeatherDisplay:10.37,2013-04-15 15:55:00,
2013-04-15 11:00:00,37.5,25.3,29.94,West,259,3.5,3.5,61,0.00,CLR,CLR,0.00,WeatherDisplay:10.37,2013-04-15 16:00:00,
2013-04-15 11:05:00,37.4,25.9,29.94,WNW,300,6.0,6.0,63,0.00,CLR,CLR,0.00,WeatherDisplay:10.37,2013-04-15 16:05:00,
2013-04-15 11:10:00,37.2,26.5,29.94,NNW,330,4.0,4.0,65,0.00,CLR,CLR,0.00,WeatherDisplay:10.37,2013-04-15 16:10:00,
2013-04-15 11:15:00,37.2,26.5,29.94,West,275,5.0,5.0,65,0.00,CLR,CLR,0.00,WeatherDisplay:10.37,2013-04-15 16:15:00,
2013-04-15 11:20:00,37.0,25.2,29.94,West,281,7.0,7.0,62,0.00,CLR,CLR,0.00,WeatherDisplay:10.37,2013-04-15 16:20:00,
2013-04-15 11:25:00,36.9,25.9,29.95,WSW,253,4.0,4.0,64,0.00,CLR,CLR,0.00,WeatherDisplay:10.37,2013-04-15 16:25:00,
2013-04-15 11:30:00,37.0,25.6,29.95,WNW,296,8.1,8.1,63,0.00,CLR,CLR,0.00,WeatherDisplay:10.37,2013-04-15 16:30:00,
2013-04-15 11:35:00,37.3,25.5,29.96,South,186,4.0,4.0,62,0.00,CLR,CLR,0.00,WeatherDisplay:10.37,2013-04-15 16:35:00,
2013-04-15 11:40:00,37.5,24.9,29.96,NW,317,6.9,6.9,60,0.00,CLR,CLR,0.00,WeatherDisplay:10.37,2013-04-15 16:40:00,
2013-04-15 11:45:00,37.8,24.7,29.96,West,261,4.0,4.0,59,0.00,CLR,CLR,0.00,WeatherDisplay:10.37,2013-04-15 16:45:00,
2013-04-15 11:50:00,38.2,25.1,29.96,WNW,296,4.0,4.0,59,0.00,CLR,CLR,0.00,WeatherDisplay:10.37,2013-04-15 16:50:00,
2013-04-15 11:55:00,38.4,25.3,29.96,WNW,294,3.5,3.5,59,0.00,CLR,CLR,0.00,WeatherDisplay:10.37,2013-04-15 16:55:00,
2013-04-15 12:00:00,38.9,25.4,29.96,NW,304,5.0,5.0,58,0.00,CLR,CLR,0.00,WeatherDisplay:10.37,2013-04-15 17:00:00,
2013-04-15 12:05:00,38.9,25.4,29.96,NW,315,5.0,5.0,58,0.00,CLR,CLR,0.00,WeatherDisplay:10.37,2013-04-15 17:05:00,
2013-04-15 12:10:00,39.0,25.9,29.96,NNW,329,5.0,5.0,59,0.00,CLR,CLR,0.00,WeatherDisplay:10.37,2013-04-15 17:10:00,
2013-04-15 12:15:00,39.3,26.2,29.96,WNW,294,5.0,5.0,59,0.00,CLR,CLR,0.00,WeatherDisplay:10.37,2013-04-15 17:15:00,
2013-04-15 12:20:00,39.4,26.2,29.96,NW,318,5.8,5.8,59,0.00,CLR,CLR,0.00,WeatherDisplay:10.37,2013-04-15 17:20:00,
2013-04-15 12:22:00,39.5,25.9,29.96,West,272,3.5,3.5,58,0.00,CLR,CLR,0.00,WeatherDisplay:10.37,2013-04-15 17:22:00,
2013-04-15 12:23:00,39.5,26.3,29.95,WNW,284,3.5,3.5,59,0.00,CLR,CLR,0.00,WeatherDisplay:10.37,2013-04-15 17:23:00,
2013-04-15 12:28:00,39.8,26.6,29.95,NNW,327,6.9,6.9,59,0.00,CLR,CLR,0.00,WeatherDisplay:10.37,2013-04-15 17:28:00,
2013-04-15 12:32:00,40.1,26.1,29.95,WNW,286,4.6,4.6,57,0.00,CLR,CLR,0.00,WeatherDisplay:10.37,2013-04-15 17:32:00,
2013-04-15 12:37:00,40.4,25.9,29.95,NNW,348,7.0,7.0,56,0.00,CLR,CLR,0.00,WeatherDisplay:10.37,2013-04-15 17:37:00,
2013-04-15 12:42:00,40.5,26.0,29.95,West,271,4.0,4.0,56,0.00,CLR,CLR,0.00,WeatherDisplay:10.37,2013-04-15 17:42:00,
2013-04-15 12:48:00,40.5,26.0,29.96,WNW,285,3.5,3.5,56,0.00,CLR,CLR,0.00,WeatherDisplay:10.37,2013-04-15 17:48:00,
2013-04-15 12:53:00,40.8,26.7,29.96,NNW,347,6.9,6.9,57,0.00,CLR,CLR,0.00,WeatherDisplay:10.37,2013-04-15 17:53:00,
2013-04-15 12:59:00,41.3,26.3,29.96,NW,309,6.9,6.9,55,0.00,CLR,CLR,0.00,WeatherDisplay:10.37,2013-04-15 17:59:00,
2013-04-15 13:04:00,41.4,26.4,29.96,West,279,5.0,5.0,55,0.00,CLR,CLR,0.00,WeatherDisplay:10.37,2013-04-15 18:04:00,
2013-04-15 13:05:00,41.3,25.9,29.95,WSW,258,6.0,6.0,54,0.00,CLR,CLR,0.00,WeatherDisplay:10.37,2013-04-15 18:05:00,
2013-04-15 13:10:00,41.2,26.7,29.95,WNW,287,8.1,8.1,56,0.00,CLR,CLR,0.00,WeatherDisplay:10.37,2013-04-15 18:10:00,
2013-04-15 13:15:00,41.3,26.8,29.95,WNW,292,3.5,3.5,56,0.00,CLR,CLR,0.00,WeatherDisplay:10.37,2013-04-15 18:15:00,
2013-04-15 13:20:00,41.5,26.5,29.95,NW,317,6.0,6.0,55,0.00,CLR,CLR,0.00,WeatherDisplay:10.37,2013-04-15 18:20:00,
2013-04-15 13:25:00,41.3,26.8,29.95,WNW,283,3.5,3.5,56,0.00,CLR,CLR,0.00,WeatherDisplay:10.37,2013-04-15 18:25:00,
2013-04-15 13:29:00,41.4,27.3,29.95,West,275,3.5,3.5,57,0.00,CLR,CLR,0.00,WeatherDisplay:10.37,2013-04-15 18:29:00,
2013-04-15 13:30:00,41.4,26.9,29.95,WNW,298,5.0,5.0,56,0.00,CLR,CLR,0.00,WeatherDisplay:10.37,2013-04-15 18:30:00,
2013-04-15 13:33:00,41.3,26.8,29.95,NNW,342,6.0,6.0,56,0.00,CLR,CLR,0.00,WeatherDisplay:10.37,2013-04-15 18:33:00,
2013-04-15 13:38:00,41.0,26.5,29.95,North,355,8.1,8.1,56,0.00,CLR,CLR,0.00,WeatherDisplay:10.37,2013-04-15 18:38:00,
2013-04-15 13:41:00,40.9,26.4,29.95,West,271,4.0,4.0,56,0.00,CLR,CLR,0.00,WeatherDisplay:10.37,2013-04-15 18:41:00,
2013-04-15 13:46:00,40.9,26.8,29.95,WNW,294,5.0,5.0,57,0.00,CLR,CLR,0.00,WeatherDisplay:10.37,2013-04-15 18:46:00,
2013-04-15 13:51:00,41.0,26.9,29.95,WNW,297,4.0,4.0,57,0.00,CLR,CLR,0.00,WeatherDisplay:10.37,2013-04-15 18:51:00,
2013-04-15 13:56:00,41.3,26.8,29.95,NW,311,5.0,5.0,56,0.00,CLR,CLR,0.00,WeatherDisplay:10.37,2013-04-15 18:56:00,
2013-04-15 14:02:00,41.6,27.1,29.95,North,5,3.5,3.5,56,0.00,CLR,CLR,0.00,WeatherDisplay:10.37,2013-04-15 19:02:00,
2013-04-15 14:07:00,41.8,27.2,29.95,NNW,348,6.0,6.0,56,0.00,CLR,CLR,0.00,WeatherDisplay:10.37,2013-04-15 19:07:00,
2013-04-15 14:13:00,42.3,28.1,29.95,NNW,335,3.5,3.5,57,0.00,CLR,CLR,0.00,WeatherDisplay:10.37,2013-04-15 19:13:00,
2013-04-15 14:18:00,42.9,28.3,29.94,WNW,288,3.5,3.5,56,0.00,CLR,CLR,0.00,WeatherDisplay:10.37,2013-04-15 19:18:00,
2013-04-15 14:23:00,43.3,27.8,29.94,NW,315,6.0,6.0,54,0.00,CLR,CLR,0.00,WeatherDisplay:10.37,2013-04-15 19:23:00,
2013-04-15 14:29:00,43.8,28.2,29.94,West,265,5.8,5.8,54,0.00,CLR,CLR,0.00,WeatherDisplay:10.37,2013-04-15 19:29:00,
2013-04-15 14:34:00,44.4,28.8,29.94,WNW,302,4.0,4.0,54,0.00,CLR,CLR,0.00,WeatherDisplay:10.37,2013-04-15 19:34:00,
2013-04-15 14:41:00,45.2,29.1,29.94,NW,325,5.0,5.0,53,0.00,CLR,CLR,0.00,WeatherDisplay:10.37,2013-04-15 19:41:00,
2013-04-15 14:47:00,45.9,29.2,29.93,North,5,10.4,10.4,52,0.00,CLR,CLR,0.00,WeatherDisplay:10.37,2013-04-15 19:47:00,
2013-04-15 14:53:00,46.1,29.4,29.94,East,101,5.0,5.0,52,0.00,CLR,CLR,0.00,WeatherDisplay:10.37,2013-04-15 19:53:00,
2013-04-15 14:58:00,46.6,29.4,29.93,NNE,23,3.5,3.5,51,0.00,CLR,CLR,0.00,WeatherDisplay:10.37,2013-04-15 19:58:00,
2013-04-15 15:02:00,46.8,28.6,29.93,West,279,4.0,4.0,49,0.00,CLR,CLR,0.00,WeatherDisplay:10.37,2013-04-15 20:02:00,
2013-04-15 15:03:00,46.9,28.7,29.93,West,268,4.0,4.0,49,0.00,CLR,CLR,0.00,WeatherDisplay:10.37,2013-04-15 20:03:00,
2013-04-15 15:04:00,46.9,28.7,29.93,North,11,4.0,4.0,49,0.00,CLR,CLR,0.00,WeatherDisplay:10.37,2013-04-15 20:04:00,
2013-04-15 15:05:00,46.9,28.7,29.93,NNW,338,6.0,6.0,49,0.00,CLR,CLR,0.00,WeatherDisplay:10.37,2013-04-15 20:05:00,
2013-04-15 15:06:00,47.0,29.3,29.93,NNW,327,4.0,4.0,50,0.00,CLR,CLR,0.00,WeatherDisplay:10.37,2013-04-15 20:06:00,
2013-04-15 15:11:00,47.6,28.9,29.93,North,355,7.0,7.0,48,0.00,CLR,CLR,0.00,WeatherDisplay:10.37,2013-04-15 20:11:00,
2013-04-15 15:16:00,47.8,29.0,29.93,NW,316,5.0,5.0,48,0.00,CLR,CLR,0.00,WeatherDisplay:10.37,2013-04-15 20:16:00,
2013-04-15 15:21:00,48.0,29.2,29.92,NNW,329,5.0,5.0,48,0.00,CLR,CLR,0.00,WeatherDisplay:10.37,2013-04-15 20:21:00,
2013-04-15 15:27:00,48.1,28.8,29.92,NNE,15,3.5,3.5,47,0.00,CLR,CLR,0.00,WeatherDisplay:10.37,2013-04-15 20:27:00,
2013-04-15 15:32:00,47.8,28.0,29.92,NW,306,5.8,5.8,46,0.00,CLR,CLR,0.00,WeatherDisplay:10.37,2013-04-15 20:32:00,
2013-04-15 15:37:00,47.6,28.9,29.92,NNW,346,4.0,4.0,48,0.00,CLR,CLR,0.00,WeatherDisplay:10.37,2013-04-15 20:37:00,
2013-04-15 15:42:00,47.9,29.1,29.92,WSW,253,5.0,5.0,48,0.00,CLR,CLR,0.00,WeatherDisplay:10.37,2013-04-15 20:42:00,
2013-04-15 15:47:00,48.1,29.3,29.91,North,355,3.5,3.5,48,0.00,CLR,CLR,0.00,WeatherDisplay:10.37,2013-04-15 20:47:00,
2013-04-15 15:52:00,48.5,29.2,29.91,WNW,296,5.0,5.0,47,0.00,CLR,CLR,0.00,WeatherDisplay:10.37,2013-04-15 20:52:00,
2013-04-15 15:57:00,48.8,29.4,29.92,NNW,331,2.0,2.0,47,0.00,CLR,CLR,0.00,WeatherDisplay:10.37,2013-04-15 20:57:00,
2013-04-15 16:02:00,49.0,29.6,29.92,NW,309,6.0,6.0,47,0.00,CLR,CLR,0.00,WeatherDisplay:10.37,2013-04-15 21:02:00,
2013-04-15 16:07:00,49.3,28.8,29.92,West,281,3.5,3.5,45,0.00,CLR,CLR,0.00,WeatherDisplay:10.37,2013-04-15 21:07:00,
2013-04-15 16:12:00,49.2,29.3,29.92,NE,35,3.5,3.5,46,0.00,CLR,CLR,0.00,WeatherDisplay:10.37,2013-04-15 21:12:00,
2013-04-15 16:17:00,49.5,29.6,29.92,NW,321,4.0,4.0,46,0.00,CLR,CLR,0.00,WeatherDisplay:10.37,2013-04-15 21:17:00,
2013-04-15 16:22:00,50.0,30.0,29.92,North,5,4.0,4.0,46,0.00,CLR,CLR,0.00,WeatherDisplay:10.37,2013-04-15 21:22:00,
2013-04-15 16:27:00,50.0,29.5,29.92,ESE,103,3.5,3.5,45,0.00,CLR,CLR,0.00,WeatherDisplay:10.37,2013-04-15 21:27:00,
2013-04-15 16:33:00,49.8,29.8,29.92,North,355,6.9,6.9,46,0.00,CLR,CLR,0.00,WeatherDisplay:10.37,2013-04-15 21:33:00,
2013-04-15 16:38:00,49.8,30.4,29.92,NNW,336,4.0,4.0,47,0.00,CLR,CLR,0.00,WeatherDisplay:10.37,2013-04-15 21:38:00,
2013-04-15 16:43:00,49.7,30.3,29.91,NNW,348,3.5,3.5,47,0.00,CLR,CLR,0.00,WeatherDisplay:10.37,2013-04-15 21:43:00,
2013-04-15 16:48:00,49.8,30.9,29.91,North,360,3.5,3.5,48,0.00,CLR,CLR,0.00,WeatherDisplay:10.37,2013-04-15 21:48:00,
2013-04-15 16:53:00,50.4,30.9,29.91,West,273,5.8,5.8,47,0.00,CLR,CLR,0.00,WeatherDisplay:10.37,2013-04-15 21:53:00,
2013-04-15 16:58:00,50.4,30.4,29.92,NW,311,6.0,6.0,46,0.00,CLR,CLR,0.00,WeatherDisplay:10.37,2013-04-15 21:58:00,
2013-04-15 17:03:00,50.0,30.5,29.92,North,355,5.8,5.8,47,0.00,CLR,CLR,0.00,WeatherDisplay:10.37,2013-04-15 22:03:00,
2013-04-15 17:08:00,49.2,29.8,29.92,NW,316,5.8,5.8,47,0.00,CLR,CLR,0.00,WeatherDisplay:10.37,2013-04-15 22:08:00,
2013-04-15 17:13:00,49.0,30.1,29.92,NNW,328,6.9,6.9,48,0.00,CLR,CLR,0.00,WeatherDisplay:10.37,2013-04-15 22:13:00,
2013-04-15 17:18:00,48.8,31.0,29.92,NNW,333,3.5,3.5,50,0.00,CLR,CLR,0.00,WeatherDisplay:10.37,2013-04-15 22:18:00,
2013-04-15 17:23:00,48.7,29.9,29.92,NNW,345,6.0,6.0,48,0.00,CLR,CLR,0.00,WeatherDisplay:10.37,2013-04-15 22:23:00,
2013-04-15 17:28:00,48.5,29.7,29.92,NW,317,2.3,2.3,48,0.00,CLR,CLR,0.00,WeatherDisplay:10.37,2013-04-15 22:28:00,
2013-04-15 17:33:00,48.4,29.6,29.92,NNW,327,3.5,3.5,48,0.00,CLR,CLR,0.00,WeatherDisplay:10.37,2013-04-15 22:33:00,
2013-04-15 17:38:00,48.4,30.1,29.92,NNE,28,4.0,4.0,49,0.00,CLR,CLR,0.00,WeatherDisplay:10.37,2013-04-15 22:38:00,
2013-04-15 17:43:00,48.4,30.1,29.93,SE,128,3.0,3.0,49,0.00,CLR,CLR,0.00,WeatherDisplay:10.37,2013-04-15 22:43:00,
2013-04-15 17:48:00,48.1,29.8,29.92,NNW,329,6.0,6.0,49,0.00,CLR,CLR,0.00,WeatherDisplay:10.37,2013-04-15 22:48:00,
2013-04-15 17:53:00,47.9,29.1,29.93,North,5,3.0,3.0,48,0.00,CLR,CLR,0.00,WeatherDisplay:10.37,2013-04-15 22:53:00,
2013-04-15 17:58:00,47.6,29.4,29.93,NNE,15,4.6,4.6,49,0.00,CLR,CLR,0.00,WeatherDisplay:10.37,2013-04-15 22:58:00,
2013-04-15 18:03:00,47.4,29.7,29.93,NNE,29,3.5,3.5,50,0.00,CLR,CLR,0.00,WeatherDisplay:10.37,2013-04-15 23:03:00,
2013-04-15 18:08:00,47.1,29.9,29.94,NW,319,6.0,6.0,51,0.00,CLR,CLR,0.00,WeatherDisplay:10.37,2013-04-15 23:08:00,
2013-04-15 18:13:00,46.9,29.7,29.94,NNE,14,6.0,6.0,51,0.00,CLR,CLR,0.00,WeatherDisplay:10.37,2013-04-15 23:13:00,
2013-04-15 18:18:00,46.8,30.1,29.94,NW,309,5.0,5.0,52,0.00,CLR,CLR,0.00,WeatherDisplay:10.37,2013-04-15 23:18:00,
2013-04-15 18:23:00,46.6,30.4,29.94,NNW,336,4.0,4.0,53,0.00,CLR,CLR,0.00,WeatherDisplay:10.37,2013-04-15 23:23:00,
2013-04-15 18:28:00,46.5,30.3,29.95,NNW,334,5.0,5.0,53,0.00,CLR,CLR,0.00,WeatherDisplay:10.37,2013-04-15 23:28:00,
2013-04-15 18:33:00,46.4,30.2,29.95,NNE,22,8.1,8.1,53,0.00,CLR,CLR,0.00,WeatherDisplay:10.37,2013-04-15 23:33:00,
2013-04-15 18:38:00,46.2,29.5,29.95,NNW,347,5.0,5.0,52,0.00,CLR,CLR,0.00,WeatherDisplay:10.37,2013-04-15 23:38:00,
2013-04-15 18:43:00,46.0,30.3,29.96,NNW,348,4.6,4.6,54,0.00,CLR,CLR,0.00,WeatherDisplay:10.37,2013-04-15 23:43:00,
2013-04-15 18:48:00,45.9,30.2,29.96,ENE,74,5.8,5.8,54,0.00,CLR,CLR,0.00,WeatherDisplay:10.37,2013-04-15 23:48:00,
2013-04-15 18:53:00,45.7,30.0,29.97,NW,315,6.0,6.0,54,0.00,CLR,CLR,0.00,WeatherDisplay:10.37,2013-04-15 23:53:00,
2013-04-15 18:58:00,45.5,29.3,29.96,NW,318,6.9,6.9,53,0.00,CLR,CLR,0.00,WeatherDisplay:10.37,2013-04-15 23:58:00,
2013-04-15 19:03:00,45.3,29.2,29.97,NW,316,5.8,5.8,53,0.00,CLR,CLR,0.00,WeatherDisplay:10.37,2013-04-16 00:03:00,
2013-04-15 19:08:00,45.2,29.1,29.97,NNW,340,2.3,2.3,53,0.00,CLR,CLR,0.00,WeatherDisplay:10.37,2013-04-16 00:08:00,
2013-04-15 19:13:00,45.0,28.9,29.97,NNE,20,3.5,3.5,53,0.00,CLR,CLR,0.00,WeatherDisplay:10.37,2013-04-16 00:13:00,
2013-04-15 19:18:00,44.9,28.8,29.97,NNW,344,5.0,5.0,53,0.00,CLR,CLR,0.00,WeatherDisplay:10.37,2013-04-16 00:18:00,
2013-04-15 19:23:00,44.8,29.2,29.97,NNW,338,2.3,2.3,54,0.00,CLR,CLR,0.00,WeatherDisplay:10.37,2013-04-16 00:23:00,
2013-04-15 19:28:00,44.7,29.1,29.97,NW,318,2.3,2.3,54,0.00,CLR,CLR,0.00,WeatherDisplay:10.37,2013-04-16 00:28:00,
2013-04-15 19:33:00,44.6,29.4,29.97,NNW,346,1.2,1.2,55,0.00,CLR,CLR,0.00,WeatherDisplay:10.37,2013-04-16 00:33:00,
2013-04-15 19:38:00,44.5,29.3,29.98,North,355,3.0,3.0,55,0.00,CLR,CLR,0.00,WeatherDisplay:10.37,2013-04-16 00:38:00,
2013-04-15 19:43:00,44.4,29.2,29.98,NNW,331,2.3,2.3,55,0.00,CLR,CLR,0.00,WeatherDisplay:10.37,2013-04-16 00:43:00,
2013-04-15 19:48:00,44.3,29.1,29.98,East,98,1.2,1.2,55,0.00,CLR,CLR,0.00,WeatherDisplay:10.37,2013-04-16 00:48:00,
2013-04-15 19:53:00,44.2,29.0,29.98,NNW,337,1.2,1.2,55,0.00,CLR,CLR,0.00,WeatherDisplay:10.37,2013-04-16 00:53:00,
2013-04-15 19:58:00,44.2,29.5,29.98,NNW,340,1.2,1.2,56,0.00,CLR,CLR,0.00,WeatherDisplay:10.37,2013-04-16 00:58:00,
2013-04-15 20:03:00,44.1,29.4,29.99,NNW,346,1.2,1.2,56,0.00,CLR,CLR,0.00,WeatherDisplay:10.37,2013-04-16 01:03:00,
2013-04-15 20:08:00,44.1,29.4,29.99,NNW,334,2.3,2.3,56,0.00,CLR,CLR,0.00,WeatherDisplay:10.37,2013-04-16 01:08:00,
2013-04-15 20:13:00,44.0,29.3,29.99,NNW,335,0.0,0.0,56,0.00,CLR,CLR,0.00,WeatherDisplay:10.37,2013-04-16 01:13:00,
2013-04-15 20:18:00,43.9,29.2,30.00,NNW,334,2.3,2.3,56,0.00,CLR,CLR,0.00,WeatherDisplay:10.37,2013-04-16 01:18:00,
2013-04-15 20:23:00,43.9,29.2,30.00,NNW,334,1.2,0.0,56,0.00,CLR,CLR,0.00,WeatherDisplay:10.37,2013-04-16 01:23:00,
2013-04-15 20:28:00,43.8,29.1,30.00,NNW,334,0.0,0.0,56,0.00,CLR,CLR,0.00,WeatherDisplay:10.37,2013-04-16 01:28:00,
2013-04-15 20:33:00,43.8,29.5,30.01,NNW,334,0.0,0.0,57,0.00,CLR,CLR,0.00,WeatherDisplay:10.37,2013-04-16 01:33:00,
2013-04-15 20:38:00,43.7,29.5,30.01,NNW,334,0.0,0.0,57,0.00,CLR,CLR,0.00,WeatherDisplay:10.37,2013-04-16 01:38:00,
2013-04-15 20:43:00,43.6,29.4,30.01,NNW,334,0.0,0.0,57,0.00,CLR,CLR,0.00,WeatherDisplay:10.37,2013-04-16 01:43:00,
2013-04-15 20:48:00,43.6,29.8,30.01,NNW,334,0.0,0.0,58,0.00,CLR,CLR,0.00,WeatherDisplay:10.37,2013-04-16 01:48:00,
2013-04-15 20:53:00,43.6,29.8,30.02,NNW,334,0.0,0.0,58,0.00,CLR,CLR,0.00,WeatherDisplay:10.37,2013-04-16 01:53:00,
2013-04-15 20:58:00,43.5,29.7,30.02,NNW,334,0.0,0.0,58,0.00,CLR,CLR,0.00,WeatherDisplay:10.37,2013-04-16 01:58:00,
2013-04-15 21:03:00,43.5,29.7,30.02,NNW,334,0.0,0.0,58,0.00,CLR,CLR,0.00,WeatherDisplay:10.37,2013-04-16 02:03:00,
2013-04-15 21:08:00,43.4,29.6,30.03,NNW,334,0.0,0.0,58,0.00,CLR,CLR,0.00,WeatherDisplay:10.37,2013-04-16 02:08:00,
2013-04-15 21:13:00,43.4,29.6,30.03,NNW,334,0.0,0.0,58,0.00,CLR,CLR,0.00,WeatherDisplay:10.37,2013-04-16 02:13:00,
2013-04-15 21:18:00,43.3,29.5,30.03,NNW,334,0.0,0.0,58,0.00,CLR,CLR,0.00,WeatherDisplay:10.37,2013-04-16 02:18:00,
2013-04-15 21:23:00,43.3,29.5,30.03,NNW,334,0.0,0.0,58,0.00,CLR,CLR,0.00,WeatherDisplay:10.37,2013-04-16 02:23:00,
2013-04-15 21:28:00,43.2,29.8,30.04,NNW,334,0.0,0.0,59,0.00,CLR,CLR,0.00,WeatherDisplay:10.37,2013-04-16 02:28:00,
2013-04-15 21:33:00,43.1,29.7,30.04,NNW,334,0.0,0.0,59,0.00,CLR,CLR,0.00,WeatherDisplay:10.37,2013-04-16 02:33:00,
2013-04-15 21:38:00,43.0,29.6,30.04,NNW,334,0.0,0.0,59,0.00,CLR,CLR,0.00,WeatherDisplay:10.37,2013-04-16 02:38:00,
2013-04-15 21:43:00,42.8,29.5,30.04,NNW,334,0.0,0.0,59,0.00,CLR,CLR,0.00,WeatherDisplay:10.37,2013-04-16 02:43:00,
2013-04-15 21:48:00,42.5,29.6,30.04,NNW,334,0.0,0.0,60,0.00,CLR,CLR,0.00,WeatherDisplay:10.37,2013-04-16 02:48:00,
2013-04-15 21:53:00,42.2,29.3,30.04,NNW,334,0.0,0.0,60,0.00,CLR,CLR,0.00,WeatherDisplay:10.37,2013-04-16 02:53:00,
2013-04-15 21:58:00,41.9,29.4,30.05,NNW,334,0.0,0.0,61,0.00,CLR,CLR,0.00,WeatherDisplay:10.37,2013-04-16 02:58:00,
2013-04-15 22:03:00,41.7,29.2,30.05,NNW,334,0.0,0.0,61,0.00,CLR,CLR,0.00,WeatherDisplay:10.37,2013-04-16 03:03:00,
2013-04-15 22:08:00,41.4,29.3,30.06,NNW,334,0.0,0.0,62,0.00,CLR,CLR,0.00,WeatherDisplay:10.37,2013-04-16 03:08:00,
2013-04-15 22:13:00,41.1,29.5,30.06,NNW,334,0.0,0.0,63,0.00,CLR,CLR,0.00,WeatherDisplay:10.37,2013-04-16 03:13:00,
2013-04-15 22:18:00,40.9,29.7,30.06,NNW,336,2.3,2.3,64,0.00,CLR,CLR,0.00,WeatherDisplay:10.37,2013-04-16 03:18:00,
2013-04-15 22:24:00,40.7,29.8,30.07,NW,306,1.2,1.2,65,0.00,CLR,CLR,0.00,WeatherDisplay:10.37,2013-04-16 03:24:00,
2013-04-15 22:29:00,40.6,30.1,30.07,NNW,337,2.3,2.3,66,0.00,CLR,CLR,0.00,WeatherDisplay:10.37,2013-04-16 03:29:00,
2013-04-15 22:34:00,40.5,30.4,30.07,NNW,341,1.2,1.2,67,0.00,CLR,CLR,0.00,WeatherDisplay:10.37,2013-04-16 03:34:00,
2013-04-15 22:39:00,40.4,30.7,30.07,North,360,1.2,1.2,68,0.00,CLR,CLR,0.00,WeatherDisplay:10.37,2013-04-16 03:39:00,
2013-04-15 22:44:00,40.2,30.8,30.07,NNW,331,2.3,2.3,69,0.00,CLR,CLR,0.00,WeatherDisplay:10.37,2013-04-16 03:44:00,
2013-04-15 22:49:00,40.1,31.1,30.07,NNE,23,3.5,3.5,70,0.00,CLR,CLR,0.00,WeatherDisplay:10.37,2013-04-16 03:49:00,
2013-04-15 22:54:00,40.1,31.4,30.07,NNE,22,1.2,1.2,71,0.00,CLR,CLR,0.00,WeatherDisplay:10.37,2013-04-16 03:54:00,
2013-04-15 22:59:00,40.0,31.4,30.07,NNE,26,2.0,2.0,71,0.00,CLR,CLR,0.00,WeatherDisplay:10.37,2013-04-16 03:59:00,
2013-04-15 23:00:00,40.0,31.4,30.07,NNE,15,2.3,2.3,71,0.00,CLR,CLR,0.00,WeatherDisplay:10.37,2013-04-16 04:00:00,
2013-04-15 23:02:00,39.9,31.3,30.08,North,360,2.3,2.3,71,0.00,CLR,CLR,0.00,WeatherDisplay:10.37,2013-04-16 04:02:00,
2013-04-15 23:03:00,39.9,31.3,30.08,NNE,21,1.2,1.2,71,0.00,CLR,CLR,0.00,WeatherDisplay:10.37,2013-04-16 04:03:00,
2013-04-15 23:08:00,39.7,31.4,30.09,NNW,332,1.2,1.2,72,0.00,CLR,CLR,0.00,WeatherDisplay:10.37,2013-04-16 04:08:00,
2013-04-15 23:09:00,39.7,31.4,30.09,NNW,345,3.5,3.5,72,0.00,CLR,CLR,0.00,WeatherDisplay:10.37,2013-04-16 04:09:00,
2013-04-15 23:14:00,39.5,31.2,30.09,North,5,2.3,2.3,72,0.00,CLR,CLR,0.00,WeatherDisplay:10.37,2013-04-16 04:14:00,
2013-04-15 23:19:00,39.3,31.4,30.09,North,349,3.5,3.5,73,0.00,CLR,CLR,0.00,WeatherDisplay:10.37,2013-04-16 04:19:00,
2013-04-15 23:24:00,39.2,31.3,30.09,NW,321,2.0,2.0,73,0.00,CLR,CLR,0.00,WeatherDisplay:10.37,2013-04-16 04:24:00,
2013-04-15 23:26:00,39.1,31.2,30.09,NNW,340,2.3,2.3,73,0.00,CLR,CLR,0.00,WeatherDisplay:10.37,2013-04-16 04:26:00,
2013-04-15 23:31:00,38.9,31.3,30.09,NNW,347,1.2,1.2,74,0.00,CLR,CLR,0.00,WeatherDisplay:10.37,2013-04-16 04:31:00,
2013-04-15 23:37:00,38.7,31.5,30.09,NNW,342,2.3,2.3,75,0.00,CLR,CLR,0.00,WeatherDisplay:10.37,2013-04-16 04:37:00,
2013-04-15 23:42:00,38.6,31.7,30.09,NNW,327,2.3,2.3,76,0.00,CLR,CLR,0.00,WeatherDisplay:10.37,2013-04-16 04:42:00,
2013-04-15 23:47:00,38.4,31.2,30.09,NNE,30,3.5,3.5,75,0.00,CLR,CLR,0.00,WeatherDisplay:10.37,2013-04-16 04:47:00,
2013-04-15 23:52:00,38.3,31.1,30.09,NW,316,2.3,2.3,75,0.00,CLR,CLR,0.00,WeatherDisplay:10.37,2013-04-16 04:52:00,
2013-04-15 23:57:00,38.2,31.3,30.09,North,355,3.0,3.0,76,0.00,CLR,CLR,0.00,WeatherDisplay:10.37,2013-04-16 04:57:00,